Location: Calvatone
(45.1167°N, 10.4333°E)
Time: 10:48:42
(UTC+00:00)

CZ-4B DEB - Pass Details

Date: 28 January 2023
Orbit: 839 x 859 km, 99.1° (Epoch: 29 March)

Event Time Altitude Azimuth Distance (km) Brightness Sun altitude
Rises 17:17:18 0° 153° (SSE) 3,380 7.2 -10.4°
Reaches altitude 10° 17:19:40 10° 150° (SSE) 2,449 6.5 -10.8°
Maximum altitude 17:25:01 62° 71° (ENE) 944 4.2 -11.7°
Drops below altitude 10° 17:30:24 10° 352° (N) 2,469 6.6 -12.6°
Sets 17:32:47 0° 349° (N) 3,410 7.3 -13.0°
